{"data":{"norad_id":39251,"epoch":"2026-09-20T03:25:30.728064Z","epoch_age_seconds":64435,"freshness":"FRESH","line1":"1 39251U 13048C   26263.14271676 -.00000030  00000+0 -29126-3 0  9996","line2":"2 39251  82.4855 287.1610 0017506  11.6503 348.4979 12.42917184590630","mean_motion":12.42917184,"eccentricity":0.0017506,"inclination_deg":82.4855,"raan_deg":287.161,"arg_perigee_deg":11.6503,"mean_anomaly_deg":348.4979,"bstar":-0.00029126,"rev_number":59063,"period_min":115.8564720592,"perigee_km":1480.4796531932,"apogee_km":1508.0424933273,"semimajor_km":7872.3980732603,"source":"CELESTRAK","updated_at":"2026-09-20T09:00:13.948474Z"}}